Location: Newark
(25.0000°N, 73.5000°E)
Time: 00:24:11
(UTC+00:00)

Vanguard 2 - All Passes

Search period start: 31 July 2021 00:00
Search period end: 10 August 2021 00:00
Orbit: 552 x 2937 km, 32.9° (Epoch: 30 July)

Date Brightness Start Highest point End Pass type
(mag) Time Alt. Az. Time Alt. Az. Time Alt. Az.
31 Jul - 02:08:08 10° WNW 02:13:06 42° N 02:20:52 10° ENE daylight
31 Jul - 04:15:47 10° WNW 04:22:52 79° NNE 04:35:11 10° ESE daylight
31 Jul - 06:24:13 10° W 06:33:28 49° SSW 06:47:58 10° SE daylight
31 Jul - 08:36:50 10° WSW 08:45:24 19° SSW 08:55:45 10° S daylight
31 Jul - 22:09:17 10° SW 22:13:16 60° SSE 22:17:21 10° ENE visible
01 Aug - 00:17:48 10° WNW 00:21:41 38° N 00:26:52 10° ENE daylight
01 Aug - 02:25:56 10° WNW 02:31:05 46° NNE 02:39:19 10° E daylight
01 Aug - 04:33:30 10° WNW 04:40:45 85° SSW 04:53:21 10° ESE daylight
01 Aug - 06:42:27 10° W 06:51:30 38° SSW 07:04:59 10° SSE daylight
01 Aug - 08:58:21 10° SW 09:03:42 13° SSW 09:09:38 10° SSW daylight
01 Aug - 20:19:58 10° S 20:22:54 16° SSE 20:25:30 10° ESE night (unlit)
01 Aug - 22:26:58 10° WSW 22:30:58 82° NNW 22:35:11 10° ENE visible
02 Aug - 00:35:48 10° WNW 00:39:41 34° N 00:44:54 10° ENE daylight
02 Aug - 02:43:38 10° WNW 02:49:01 54° NNE 02:57:48 10° E daylight
02 Aug - 04:51:16 10° WNW 04:58:38 68° SSW 05:11:14 10° SE daylight
02 Aug - 07:01:05 10° W 07:09:36 28° SSW 07:21:32 10° SSE daylight
02 Aug - 20:36:33 10° SSW 20:40:41 27° SSE 20:44:08 10° E night (unlit)
02 Aug - 22:44:52 10° W 22:48:46 52° NNW 22:52:56 10° ENE visible
03 Aug - 00:53:44 10° WNW 00:57:41 33° N 01:03:05 10° ENE daylight
03 Aug - 03:01:19 10° WNW 03:06:52 67° NNE 03:16:11 10° ESE daylight
03 Aug - 05:09:10 10° W 05:16:33 52° SSW 05:28:48 10° SE daylight
03 Aug - 07:20:21 10° WSW 07:27:46 20° SSW 07:37:23 10° S daylight
03 Aug - 20:53:46 10° SW 20:58:25 47° SSE 21:02:13 10° E visible
03 Aug - 23:02:54 10° W 23:06:38 38° NNW 23:10:41 10° ENE visible
04 Aug - 01:11:34 10° WNW 01:15:39 36° N 01:21:23 10° ENE daylight
04 Aug - 03:18:59 10° WNW 03:24:42 85° NNE 03:34:23 10° ESE daylight
04 Aug - 05:27:17 10° W 05:34:33 38° SSW 05:46:00 10° SE daylight
04 Aug - 07:41:05 10° SW 07:46:04 13° SSW 07:51:52 10° S daylight
04 Aug - 19:03:48 10° S 19:07:36 16° SSE 19:10:40 10° ESE night (unlit)
04 Aug - 21:11:22 10° WSW 21:16:09 79° SSE 21:20:04 10° ENE visible
04 Aug - 23:21:00 10° WNW 23:24:33 31° N 23:28:31 10° ENE visible
05 Aug - 01:29:18 10° WNW 01:33:34 42° NNE 01:39:45 10° E daylight
05 Aug - 03:36:42 10° WNW 03:42:31 74° SSW 03:52:22 10° ESE daylight
05 Aug - 05:45:44 10° W 05:52:37 28° SSW 06:02:43 10° SSE daylight
05 Aug - 19:20:15 10° SSW 19:25:31 26° SSE 19:29:23 10° E night (unlit)
05 Aug - 21:29:14 10° WSW 21:33:53 66° NNW 21:37:48 10° ENE visible
05 Aug - 23:39:03 10° WNW 23:42:31 28° N 23:46:28 10° ENE visible
06 Aug - 01:46:58 10° WNW 01:51:25 52° NNE 01:58:05 10° E daylight
06 Aug - 03:54:31 10° WNW 04:00:22 54° SSW 04:10:04 10° SE daylight
06 Aug - 06:04:46 10° WSW 06:10:46 20° SSW 06:18:47 10° SSE daylight
06 Aug - 17:31:59 10° SSE 17:33:53 11° SSE 17:35:37 10° SE night (unlit)
06 Aug - 19:37:21 10° SW 19:43:21 41° SSE 19:47:34 10° E night (unlit)
06 Aug - 21:47:18 10° W 21:51:40 45° NNW 21:55:28 10° ENE visible
06 Aug - 23:57:00 10° WNW 00:00:29 29° N 00:04:34 10° ENE visible
07 Aug - 02:04:37 10° WNW 02:09:13 70° NNE 02:16:19 10° ESE daylight
07 Aug - 04:12:32 10° W 04:18:17 38° SSW 04:27:23 10° SE daylight
07 Aug - 06:25:12 10° SW 06:29:01 13° SSW 06:33:28 10° S daylight
07 Aug - 17:46:36 10° SSW 17:51:59 18° SSE 17:56:03 10° ESE night (unlit)
07 Aug - 19:54:52 10° SW 20:01:09 65° SSE 20:05:27 10° ENE night (unlit)
07 Aug - 22:05:30 10° W 22:09:31 34° NNW 22:13:10 10° NE visible
08 Aug - 00:14:48 10° NW 00:18:25 32° N 00:22:47 10° ENE visible
08 Aug - 02:22:18 10° WNW 02:26:59 84° SSW 02:34:21 10° ESE daylight
08 Aug - 04:30:52 10° W 04:36:17 27° SSW 04:44:16 10° SSE daylight
08 Aug - 18:02:58 10° SSW 18:10:00 27° SSE 18:14:50 10° E night (unlit)
08 Aug - 20:12:43 10° WSW 20:18:55 84° NNW 20:23:12 10° ENE night (unlit)
08 Aug - 22:23:41 10° WNW 22:27:27 29° N 22:30:56 10° NE visible
09 Aug - 00:32:31 10° NW 00:36:18 40° NNE 00:41:03 10° E daylight
09 Aug - 02:40:04 10° WNW 02:44:46 58° SSW 02:52:07 10° SE daylight
09 Aug - 04:49:47 10° WSW 04:54:23 18° SSW 05:00:28 10° SSE daylight
09 Aug - 16:13:37 10° S 16:17:43 13° SSE 16:21:11 10° SE visible
09 Aug - 18:19:58 10° SW 18:27:57 40° SSE 18:33:04 10° E night (unlit)
09 Aug - 20:30:47 10° W 20:36:41 59° NNW 20:40:51 10° ENE night (unlit)
09 Aug - 22:41:47 10° WNW 22:45:24 27° N 22:48:51 10° ENE visible
